NSZ3864 EKBI-LIRN

Flight info

Callsign NSZ3864
Flight time 2h 17m
Altitude 35000
Route ALS M852 HLZ DCT ABGUS Z94 KENIG DCT ALOSO DCT ARMUT DCT SIMBA DCT OBEDI DCT PESUT DCT PUL DCT EDUGI DCT ERITU DCT NAVAG DCT SUXUB DCT ERIKA
Aircraft A320/M-SDE3FGHIRWY/LB1

Departure

Time 2026-04-28 16:26
Airport Billund Airport (EKBI)

Arrival

Time 2026-04-28 18:44
Airport Naples International Airport (LIRN)
Time Latitude Longitude Altitude Speed Heading
2026-04-28 16:15 55.74536 9.14749 216 ft 0 kts 357°
2026-04-28 16:18 55.74521 9.14750 221 ft 4 kts 357°
2026-04-28 16:19 55.74453 9.14776 224 ft 4 kts 292°
2026-04-28 16:19 55.74450 9.14817 217 ft 4 kts 266°
2026-04-28 16:19 55.74450 9.14831 217 ft 0 kts 266°
2026-04-28 16:21 55.74450 9.14830 217 ft 1 kts 266°
2026-04-28 16:21 55.74449 9.14799 220 ft 4 kts 266°
2026-04-28 16:21 55.74447 9.14727 220 ft 12 kts 266°
2026-04-28 16:21 55.74441 9.14525 220 ft 17 kts 267°
2026-04-28 16:22 55.74429 9.14330 216 ft 15 kts 246°
2026-04-28 16:22 55.74327 9.14292 218 ft 16 kts 176°
2026-04-28 16:22 55.74251 9.14222 221 ft 14 kts 259°
2026-04-28 16:22 55.74247 9.14044 216 ft 15 kts 266°
2026-04-28 16:23 55.74240 9.13842 216 ft 17 kts 266°
2026-04-28 16:23 55.74233 9.13619 220 ft 19 kts 266°
2026-04-28 16:23 55.74211 9.13399 218 ft 19 kts 240°
2026-04-28 16:23 55.74135 9.13278 220 ft 14 kts 203°
2026-04-28 16:24 55.74065 9.13255 220 ft 0 kts 177°
2026-04-28 16:25 55.74038 9.13258 217 ft 11 kts 176°
2026-04-28 16:25 55.73977 9.13331 223 ft 12 kts 100°
2026-04-28 16:25 55.73981 9.13481 216 ft 26 kts 86°
2026-04-28 16:25 55.74008 9.14280 221 ft 98 kts 86°
2026-04-28 16:26 55.74058 9.15809 216 ft 148 kts 86°
2026-04-28 16:26 55.74117 9.17819 466 ft 171 kts 84°
2026-04-28 16:26 55.74157 9.20005 908 ft 187 kts 86°
2026-04-28 16:26 55.74192 9.22355 1437 ft 193 kts 84°
2026-04-28 16:27 55.74270 9.24871 1777 ft 210 kts 84°
2026-04-28 16:27 55.74363 9.27573 2166 ft 225 kts 87°
2026-04-28 16:27 55.72637 9.32243 3347 ft 260 kts 148°
2026-04-28 16:28 55.70962 9.33616 4105 ft 269 kts 156°
2026-04-28 16:28 55.69191 9.34798 4925 ft 275 kts 158°
2026-04-28 16:28 55.67386 9.35998 5755 ft 279 kts 157°
2026-04-28 16:28 55.65575 9.37288 6604 ft 282 kts 155°
2026-04-28 16:29 55.61930 9.40146 8128 ft 291 kts 152°
2026-04-28 16:29 55.58223 9.43247 9631 ft 299 kts 152°
2026-04-28 16:30 55.56331 9.44847 10376 ft 303 kts 152°
2026-04-28 16:30 55.54390 9.46492 10759 ft 320 kts 152°
2026-04-28 16:30 55.52313 9.48249 10920 ft 342 kts 152°
2026-04-28 16:30 55.50124 9.50093 11355 ft 353 kts 152°
2026-04-28 16:31 55.47888 9.51970 11952 ft 358 kts 152°
2026-04-28 16:31 55.45625 9.53866 12589 ft 362 kts 153°
2026-04-28 16:31 55.43339 9.55778 13215 ft 366 kts 153°
2026-04-28 16:31 55.41027 9.57709 13837 ft 370 kts 153°
2026-04-28 16:32 55.38695 9.59656 14436 ft 373 kts 153°
2026-04-28 16:32 55.33972 9.63592 15525 ft 379 kts 153°
2026-04-28 16:32 55.31578 9.65588 16060 ft 382 kts 153°
2026-04-28 16:33 55.29166 9.67595 16582 ft 386 kts 153°
2026-04-28 16:33 55.27557 9.68930 16921 ft 388 kts 153°
2026-04-28 16:33 55.24274 9.71654 17630 ft 392 kts 153°
2026-04-28 16:33 55.21793 9.73704 18147 ft 396 kts 153°
2026-04-28 16:34 55.19292 9.75770 18669 ft 399 kts 153°
2026-04-28 16:34 55.16770 9.77854 19129 ft 403 kts 153°
2026-04-28 16:34 55.14229 9.79950 19603 ft 406 kts 153°
2026-04-28 16:34 55.11667 9.82061 20094 ft 408 kts 153°
2026-04-28 16:35 55.09091 9.84182 20564 ft 411 kts 153°
2026-04-28 16:35 55.06494 9.86314 21016 ft 414 kts 153°
2026-04-28 16:35 55.03878 9.88455 21484 ft 417 kts 153°
2026-04-28 16:35 55.01244 9.90610 21913 ft 420 kts 153°
2026-04-28 16:36 54.98588 9.92780 22340 ft 423 kts 153°
2026-04-28 16:36 54.95917 9.94961 22769 ft 426 kts 153°
2026-04-28 16:36 54.93140 9.96820 23176 ft 431 kts 163°
2026-04-28 16:36 54.90230 9.97842 23575 ft 435 kts 173°
2026-04-28 16:37 54.87202 9.97984 23967 ft 438 kts 184°
2026-04-28 16:37 54.84177 9.97246 24288 ft 440 kts 192°
2026-04-28 16:37 54.81164 9.96248 24637 ft 443 kts 191°
2026-04-28 16:38 54.75067 9.94275 25276 ft 449 kts 191°
2026-04-28 16:38 54.71987 9.93282 25591 ft 452 kts 190°
2026-04-28 16:38 54.68885 9.92278 25898 ft 455 kts 190°
2026-04-28 16:38 54.65763 9.91263 26211 ft 458 kts 190°
2026-04-28 16:39 54.62624 9.90243 26513 ft 461 kts 190°
2026-04-28 16:39 54.59459 9.89220 26807 ft 464 kts 190°
2026-04-28 16:39 54.56279 9.88202 27158 ft 465 kts 189°
2026-04-28 16:39 54.53073 9.87368 27473 ft 467 kts 183°
2026-04-28 16:40 54.49829 9.87305 27779 ft 467 kts 173°
2026-04-28 16:40 54.46620 9.88069 28084 ft 466 kts 164°
2026-04-28 16:40 54.43471 9.89401 28395 ft 467 kts 162°
2026-04-28 16:40 54.40310 9.90755 28718 ft 470 kts 162°
2026-04-28 16:41 54.37128 9.92103 29035 ft 472 kts 162°
2026-04-28 16:41 54.33930 9.93442 29338 ft 474 kts 162°
2026-04-28 16:41 54.30725 9.94779 29767 ft 473 kts 162°
2026-04-28 16:41 54.27529 9.96114 30280 ft 471 kts 162°
2026-04-28 16:42 54.24347 9.97445 30706 ft 471 kts 162°
2026-04-28 16:42 54.21169 9.98772 31067 ft 470 kts 162°
2026-04-28 16:42 54.17989 10.00101 31413 ft 471 kts 162°
2026-04-28 16:42 54.14806 10.01425 31757 ft 471 kts 162°
2026-04-28 16:43 54.11616 10.02747 32101 ft 472 kts 162°
2026-04-28 16:43 54.08423 10.04071 32437 ft 472 kts 162°
2026-04-28 16:43 54.05232 10.05396 32810 ft 472 kts 162°
2026-04-28 16:43 54.02042 10.06723 33199 ft 471 kts 162°
2026-04-28 16:44 53.98859 10.08044 33561 ft 471 kts 162°
2026-04-28 16:44 53.95669 10.09364 33904 ft 472 kts 162°
2026-04-28 16:44 53.92478 10.10680 34236 ft 472 kts 162°
2026-04-28 16:44 53.89281 10.11999 34525 ft 473 kts 162°
2026-04-28 16:45 53.86086 10.13317 34807 ft 473 kts 162°
2026-04-28 16:45 53.82889 10.14634 35090 ft 472 kts 162°
2026-04-28 16:45 53.79696 10.15945 35322 ft 472 kts 163°
2026-04-28 16:46 53.73323 10.18557 35383 ft 478 kts 163°
2026-04-28 16:46 53.66853 10.21211 35381 ft 479 kts 162°
2026-04-28 16:47 53.60424 10.24112 35379 ft 478 kts 161°
2026-04-28 16:47 53.54017 10.27139 35374 ft 478 kts 161°
2026-04-28 16:48 53.47631 10.30114 35367 ft 476 kts 162°
2026-04-28 16:48 53.41247 10.33016 35365 ft 476 kts 162°
2026-04-28 16:49 53.34852 10.35883 35372 ft 476 kts 162°
2026-04-28 16:49 53.28456 10.38738 35351 ft 476 kts 163°
2026-04-28 16:50 53.22068 10.41593 35361 ft 475 kts 163°
2026-04-28 16:50 53.15696 10.44435 35361 ft 474 kts 163°
2026-04-28 16:51 53.09335 10.47269 35357 ft 473 kts 163°
2026-04-28 16:51 53.02975 10.50092 35350 ft 473 kts 163°
2026-04-28 16:52 52.96666 10.52881 35335 ft 472 kts 163°
2026-04-28 16:52 52.90312 10.55678 35329 ft 472 kts 163°
2026-04-28 16:53 52.83958 10.58472 35332 ft 472 kts 163°
2026-04-28 16:53 52.77613 10.61288 35319 ft 472 kts 163°
2026-04-28 16:54 52.71277 10.64132 35339 ft 471 kts 164°
2026-04-28 16:54 52.64953 10.66948 35332 ft 471 kts 164°
2026-04-28 16:55 52.58628 10.69736 35330 ft 470 kts 164°
2026-04-28 16:55 52.52311 10.72516 35321 ft 470 kts 164°
2026-04-28 16:56 52.46000 10.75292 35313 ft 469 kts 165°
2026-04-28 16:56 52.39698 10.78058 35319 ft 468 kts 165°
2026-04-28 16:57 52.33417 10.80882 35314 ft 468 kts 163°
2026-04-28 16:57 52.27220 10.84123 35314 ft 467 kts 161°
2026-04-28 16:58 52.21060 10.87510 35306 ft 467 kts 161°
2026-04-28 16:58 52.14887 10.90807 35327 ft 467 kts 163°
2026-04-28 16:59 52.08701 10.94014 35322 ft 467 kts 163°
2026-04-28 16:59 52.02512 10.97196 35314 ft 467 kts 163°
2026-04-28 17:00 51.96365 11.00361 35306 ft 466 kts 163°
2026-04-28 17:00 51.90144 11.03563 35307 ft 466 kts 163°
2026-04-28 17:01 51.85121 11.06689 35307 ft 466 kts 153°
2026-04-28 17:01 51.78464 11.12413 35306 ft 466 kts 153°
2026-04-28 17:02 51.72728 11.17301 35295 ft 466 kts 153°
2026-04-28 17:02 51.67922 11.21382 35309 ft 466 kts 153°
2026-04-28 17:03 51.59105 11.27853 35303 ft 463 kts 165°
2026-04-28 17:03 51.52929 11.30847 35292 ft 464 kts 165°
2026-04-28 17:04 51.43703 11.35336 35278 ft 464 kts 166°
2026-04-28 17:05 51.34423 11.39832 35289 ft 465 kts 166°
2026-04-28 17:06 51.25138 11.44323 35291 ft 464 kts 166°
2026-04-28 17:06 51.15853 11.48768 35287 ft 465 kts 167°
2026-04-28 17:07 51.09651 11.51726 35274 ft 465 kts 167°
2026-04-28 17:07 51.03447 11.54696 35268 ft 466 kts 167°
2026-04-28 17:08 50.97239 11.57659 35254 ft 466 kts 167°
2026-04-28 17:08 50.91027 11.60607 35257 ft 466 kts 168°
2026-04-28 17:09 50.84805 11.63538 35270 ft 466 kts 168°
2026-04-28 17:09 50.78587 11.66470 35271 ft 466 kts 168°
2026-04-28 17:10 50.72371 11.69404 35238 ft 466 kts 168°
2026-04-28 17:10 50.66279 11.73053 35245 ft 470 kts 162°
2026-04-28 17:11 50.60226 11.76946 35251 ft 470 kts 163°
2026-04-28 17:11 50.54163 11.80835 35233 ft 471 kts 162°
2026-04-28 17:12 50.48101 11.84723 35235 ft 471 kts 163°
2026-04-28 17:12 50.42067 11.88568 35232 ft 471 kts 163°
2026-04-28 17:13 50.35951 11.92449 35230 ft 471 kts 163°
2026-04-28 17:13 50.29876 11.96295 35221 ft 471 kts 163°
2026-04-28 17:14 50.23842 12.00123 35210 ft 471 kts 163°
2026-04-28 17:14 50.17765 12.03974 35228 ft 472 kts 163°
2026-04-28 17:15 50.11679 12.07795 35215 ft 472 kts 163°
2026-04-28 17:15 50.05588 12.11607 35201 ft 472 kts 163°
2026-04-28 17:16 49.99490 12.15414 35172 ft 472 kts 164°
2026-04-28 17:16 49.93402 12.19214 35183 ft 471 kts 163°
2026-04-28 17:17 49.87324 12.23002 35188 ft 470 kts 164°
2026-04-28 17:17 49.81253 12.26772 35185 ft 470 kts 164°
2026-04-28 17:18 49.75177 12.30520 35170 ft 470 kts 164°
2026-04-28 17:18 49.69077 12.34091 35174 ft 467 kts 167°
2026-04-28 17:19 49.62887 12.37044 35174 ft 464 kts 170°
2026-04-28 17:19 49.56680 12.39788 35170 ft 464 kts 170°
2026-04-28 17:20 49.51530 12.42153 35149 ft 465 kts 169°
2026-04-28 17:20 49.44304 12.45599 35150 ft 465 kts 169°
2026-04-28 17:21 49.38119 12.48557 35144 ft 465 kts 169°
2026-04-28 17:22 49.28833 12.52943 35150 ft 466 kts 169°
2026-04-28 17:22 49.22629 12.55855 35120 ft 468 kts 171°
2026-04-28 17:23 49.13257 12.60224 35114 ft 471 kts 170°
2026-04-28 17:23 49.06985 12.63151 35114 ft 472 kts 170°
2026-04-28 17:24 49.00704 12.66071 35097 ft 473 kts 171°
2026-04-28 17:24 48.94402 12.68991 35100 ft 474 kts 171°
2026-04-28 17:25 48.84923 12.73394 35109 ft 475 kts 171°
2026-04-28 17:26 48.78596 12.76298 35094 ft 475 kts 171°
2026-04-28 17:26 48.72278 12.79195 35104 ft 474 kts 171°
2026-04-28 17:27 48.65964 12.82094 35118 ft 474 kts 171°
2026-04-28 17:27 48.59653 12.84983 35115 ft 474 kts 171°
2026-04-28 17:28 48.53344 12.87854 35087 ft 474 kts 171°
2026-04-28 17:28 48.43863 12.92160 35095 ft 475 kts 171°
2026-04-28 17:29 48.37540 12.95028 35107 ft 475 kts 171°
2026-04-28 17:30 48.28060 12.99322 35107 ft 474 kts 171°
2026-04-28 17:30 48.18577 13.03374 35108 ft 470 kts 174°
2026-04-28 17:31 48.09037 13.06582 35102 ft 468 kts 175°
2026-04-28 17:32 47.99545 13.09813 35102 ft 469 kts 174°
2026-04-28 17:32 47.93192 13.12068 35102 ft 469 kts 174°
2026-04-28 17:33 47.86835 13.14310 35090 ft 469 kts 174°
2026-04-28 17:33 47.81558 13.16153 35112 ft 468 kts 174°
2026-04-28 17:34 47.74152 13.18728 35119 ft 468 kts 174°
2026-04-28 17:34 47.67815 13.20921 35109 ft 467 kts 174°
2026-04-28 17:35 47.61482 13.23119 35091 ft 467 kts 174°
2026-04-28 17:35 47.55150 13.25310 35093 ft 467 kts 174°
2026-04-28 17:36 47.48819 13.27485 35096 ft 467 kts 174°
2026-04-28 17:36 47.42478 13.29655 35076 ft 467 kts 174°
2026-04-28 17:37 47.36143 13.31833 35087 ft 467 kts 174°
2026-04-28 17:37 47.29814 13.34008 35099 ft 467 kts 174°
2026-04-28 17:38 47.23498 13.36283 35109 ft 467 kts 173°
2026-04-28 17:38 47.17185 13.38593 35078 ft 467 kts 173°
2026-04-28 17:39 47.10911 13.40864 35077 ft 468 kts 173°
2026-04-28 17:40 47.01425 13.44269 35079 ft 469 kts 173°
2026-04-28 17:40 46.95085 13.46526 35081 ft 469 kts 173°
2026-04-28 17:41 46.88736 13.48781 35098 ft 469 kts 173°
2026-04-28 17:41 46.82397 13.51033 35095 ft 469 kts 173°
2026-04-28 17:42 46.76061 13.53278 35082 ft 469 kts 173°
2026-04-28 17:42 46.69722 13.55521 35075 ft 469 kts 173°
2026-04-28 17:43 46.63373 13.57758 35078 ft 470 kts 173°
2026-04-28 17:43 46.57018 13.60000 35058 ft 470 kts 172°
2026-04-28 17:44 46.50668 13.62235 35076 ft 469 kts 172°
2026-04-28 17:44 46.44329 13.64458 35084 ft 469 kts 173°
2026-04-28 17:45 46.37988 13.66668 35081 ft 468 kts 172°
2026-04-28 17:45 46.31662 13.68868 35062 ft 467 kts 172°
2026-04-28 17:46 46.25346 13.71059 35077 ft 466 kts 172°
2026-04-28 17:46 46.18993 13.72358 35077 ft 460 kts 180°
2026-04-28 17:47 46.12632 13.73329 35048 ft 460 kts 180°
2026-04-28 17:47 46.07353 13.74137 35064 ft 459 kts 180°
2026-04-28 17:48 46.01011 13.75110 35074 ft 458 kts 180°
2026-04-28 17:48 45.94683 13.76071 35071 ft 457 kts 180°
2026-04-28 17:49 45.88352 13.77032 35064 ft 457 kts 180°
2026-04-28 17:49 45.82030 13.77997 35064 ft 457 kts 180°
2026-04-28 17:50 45.75707 13.78955 35064 ft 457 kts 180°
2026-04-28 17:50 45.69385 13.79908 35050 ft 457 kts 180°
2026-04-28 17:51 45.63070 13.80856 35064 ft 456 kts 180°
2026-04-28 17:51 45.56753 13.81794 35063 ft 456 kts 180°
2026-04-28 17:52 45.50477 13.82730 35052 ft 456 kts 180°
2026-04-28 17:52 45.41001 13.84168 35057 ft 457 kts 180°
2026-04-28 17:53 45.34685 13.85115 35060 ft 456 kts 180°
2026-04-28 17:53 45.28363 13.86041 35043 ft 456 kts 180°
2026-04-28 17:54 45.22047 13.86976 35045 ft 457 kts 179°
2026-04-28 17:54 45.15726 13.87918 35048 ft 457 kts 179°
2026-04-28 17:55 45.09408 13.88846 35041 ft 457 kts 179°
2026-04-28 17:55 45.03089 13.89778 35047 ft 457 kts 179°
2026-04-28 17:56 44.96767 13.90709 35070 ft 457 kts 179°
2026-04-28 17:56 44.90449 13.91636 35057 ft 457 kts 179°
2026-04-28 17:57 44.84136 13.92794 35068 ft 458 kts 175°
2026-04-28 17:57 44.77848 13.94356 35073 ft 459 kts 174°
2026-04-28 17:58 44.71560 13.95966 35053 ft 459 kts 175°
2026-04-28 17:58 44.65271 13.97476 35055 ft 458 kts 175°
2026-04-28 17:59 44.58979 13.98918 35054 ft 458 kts 175°
2026-04-28 17:59 44.52691 14.00354 35052 ft 458 kts 175°
2026-04-28 18:00 44.46404 14.01802 35047 ft 458 kts 175°
2026-04-28 18:00 44.40124 14.03263 35050 ft 457 kts 175°
2026-04-28 18:01 44.33842 14.04720 35055 ft 457 kts 175°
2026-04-28 18:01 44.27567 14.06164 35047 ft 457 kts 174°
2026-04-28 18:02 44.21299 14.07599 35052 ft 456 kts 175°
2026-04-28 18:02 44.15034 14.09035 35055 ft 456 kts 174°
2026-04-28 18:03 44.08770 14.10473 35046 ft 456 kts 174°
2026-04-28 18:03 44.02507 14.11910 35054 ft 456 kts 174°
2026-04-28 18:04 43.96240 14.13343 35054 ft 456 kts 174°
2026-04-28 18:04 43.89975 14.14768 35057 ft 456 kts 174°
2026-04-28 18:05 43.84771 14.15945 35057 ft 456 kts 174°
2026-04-28 18:05 43.77446 14.16982 35055 ft 449 kts 187°
2026-04-28 18:06 43.71251 14.16181 35039 ft 447 kts 190°
2026-04-28 18:06 43.65058 14.15359 35042 ft 447 kts 189°
2026-04-28 18:07 43.58857 14.14556 35042 ft 448 kts 189°
2026-04-28 18:07 43.52653 14.13754 35031 ft 448 kts 189°
2026-04-28 18:08 43.46447 14.12948 35049 ft 448 kts 189°
2026-04-28 18:08 43.40263 14.12299 35055 ft 450 kts 186°
2026-04-28 18:09 43.33998 14.12118 35048 ft 451 kts 184°
2026-04-28 18:09 43.27726 14.12046 35057 ft 451 kts 185°
2026-04-28 18:10 43.21462 14.11883 35063 ft 450 kts 185°
2026-04-28 18:10 43.15200 14.11648 35059 ft 450 kts 186°
2026-04-28 18:11 43.08945 14.11398 35049 ft 450 kts 185°
2026-04-28 18:11 43.02690 14.11175 35053 ft 449 kts 185°
2026-04-28 18:12 42.96439 14.10973 35053 ft 449 kts 185°
2026-04-28 18:12 42.90193 14.10764 35049 ft 449 kts 185°
2026-04-28 18:13 42.83950 14.10559 35048 ft 449 kts 185°
2026-04-28 18:13 42.77710 14.10342 35049 ft 448 kts 185°
2026-04-28 18:14 42.71473 14.10121 35041 ft 448 kts 185°
2026-04-28 18:14 42.65238 14.09911 35051 ft 448 kts 185°
2026-04-28 18:15 42.59043 14.09709 35058 ft 448 kts 185°
2026-04-28 18:15 42.52805 14.09519 35060 ft 449 kts 185°
2026-04-28 18:16 42.46561 14.09377 35065 ft 449 kts 184°
2026-04-28 18:16 42.40309 14.09241 35068 ft 449 kts 184°
2026-04-28 18:17 42.34058 14.09098 35062 ft 449 kts 184°
2026-04-28 18:17 42.27812 14.08943 35066 ft 449 kts 184°
2026-04-28 18:18 42.21570 14.08787 35065 ft 449 kts 184°
2026-04-28 18:18 42.16384 14.08656 35059 ft 449 kts 184°
2026-04-28 18:19 42.09086 14.08474 35055 ft 449 kts 184°
2026-04-28 18:19 42.05971 14.08405 34761 ft 448 kts 184°
2026-04-28 18:19 42.02863 14.08336 34295 ft 445 kts 184°
2026-04-28 18:20 41.99774 14.08266 33849 ft 442 kts 184°
2026-04-28 18:20 41.96710 14.08192 33384 ft 439 kts 184°
2026-04-28 18:20 41.93664 14.08115 32922 ft 436 kts 184°
2026-04-28 18:20 41.90684 14.08039 32458 ft 432 kts 184°
2026-04-28 18:21 41.87695 14.07880 31994 ft 427 kts 189°
2026-04-28 18:21 41.84764 14.07346 31520 ft 423 kts 191°
2026-04-28 18:21 41.81855 14.06801 31066 ft 420 kts 191°
2026-04-28 18:21 41.78969 14.06259 30607 ft 418 kts 191°
2026-04-28 18:22 41.76102 14.05719 30185 ft 415 kts 191°
2026-04-28 18:22 41.73216 14.05174 29659 ft 412 kts 190°
2026-04-28 18:22 41.70424 14.04649 29168 ft 409 kts 190°
2026-04-28 18:22 41.67614 14.04128 28691 ft 406 kts 189°
2026-04-28 18:23 41.64811 14.04089 27966 ft 403 kts 173°
2026-04-28 18:23 41.62121 14.05087 27284 ft 404 kts 156°
2026-04-28 18:23 41.59731 14.07043 26790 ft 405 kts 141°
2026-04-28 18:23 41.57725 14.09717 26131 ft 410 kts 133°
2026-04-28 18:24 41.55796 14.12530 25550 ft 411 kts 133°
2026-04-28 18:24 41.54490 14.14431 25182 ft 411 kts 133°
2026-04-28 18:24 41.51926 14.18160 24455 ft 412 kts 133°
2026-04-28 18:24 41.49982 14.20977 23912 ft 412 kts 133°
2026-04-28 18:25 41.48038 14.23789 23356 ft 412 kts 133°
2026-04-28 18:25 41.46091 14.26599 22727 ft 413 kts 133°
2026-04-28 18:25 41.44140 14.29414 22105 ft 413 kts 134°
2026-04-28 18:26 41.40026 14.34718 20943 ft 411 kts 140°
2026-04-28 18:26 41.37879 14.37228 20355 ft 410 kts 140°
2026-04-28 18:26 41.35736 14.39726 19798 ft 409 kts 140°
2026-04-28 18:26 41.33568 14.42157 19245 ft 406 kts 146°
2026-04-28 18:27 41.31229 14.44245 18706 ft 404 kts 149°
2026-04-28 18:27 41.28893 14.46214 18137 ft 391 kts 150°
2026-04-28 18:27 41.26555 14.47889 17525 ft 372 kts 164°
2026-04-28 18:27 41.24073 14.48274 16933 ft 353 kts 190°
2026-04-28 18:28 41.21847 14.47197 16353 ft 336 kts 217°
2026-04-28 18:28 41.20279 14.45015 15775 ft 323 kts 238°
2026-04-28 18:28 41.19233 14.42430 15223 ft 314 kts 247°
2026-04-28 18:28 41.18351 14.39816 14661 ft 307 kts 242°
2026-04-28 18:29 41.16933 14.37761 14150 ft 304 kts 211°
2026-04-28 18:29 41.14940 14.36984 13660 ft 301 kts 180°
2026-04-28 18:29 41.12941 14.37665 13134 ft 298 kts 152°
2026-04-28 18:29 41.11242 14.39200 12619 ft 294 kts 142°
2026-04-28 18:30 41.09731 14.40995 12106 ft 290 kts 130°
2026-04-28 18:30 41.09357 14.41694 12032 ft 286 kts 118°
2026-04-28 18:30 41.08790 14.45850 11829 ft 274 kts 81°
2026-04-28 18:30 41.09423 14.48189 11619 ft 269 kts 60°
2026-04-28 18:31 41.10369 14.50327 11378 ft 267 kts 59°
2026-04-28 18:31 41.11343 14.52421 11110 ft 266 kts 58°
2026-04-28 18:31 41.12322 14.54483 10964 ft 261 kts 58°
2026-04-28 18:31 41.13279 14.56487 10829 ft 254 kts 58°
2026-04-28 18:32 41.14221 14.58459 10594 ft 252 kts 58°
2026-04-28 18:32 41.15155 14.60424 10344 ft 251 kts 59°
2026-04-28 18:32 41.16072 14.62387 10108 ft 249 kts 59°
2026-04-28 18:32 41.16978 14.64345 9846 ft 248 kts 60°
2026-04-28 18:33 41.17877 14.66295 9554 ft 248 kts 60°
2026-04-28 18:33 41.18775 14.68238 9281 ft 246 kts 59°
2026-04-28 18:33 41.19681 14.70198 8970 ft 246 kts 59°
2026-04-28 18:33 41.20399 14.72227 8655 ft 242 kts 82°
2026-04-28 18:34 41.20292 14.74399 8358 ft 236 kts 113°
2026-04-28 18:34 41.19385 14.76154 8063 ft 231 kts 143°
2026-04-28 18:34 41.18508 14.76922 7998 ft 229 kts 150°
2026-04-28 18:34 41.17131 14.78036 7995 ft 233 kts 149°
2026-04-28 18:35 41.15296 14.79515 7995 ft 232 kts 154°
2026-04-28 18:35 41.13748 14.79965 7990 ft 230 kts 187°
2026-04-28 18:35 41.12281 14.79207 7995 ft 230 kts 219°
2026-04-28 18:35 41.11310 14.77533 7951 ft 230 kts 239°
2026-04-28 18:36 41.10484 14.75713 7640 ft 230 kts 237°
2026-04-28 18:36 41.09917 14.74497 7437 ft 229 kts 237°
2026-04-28 18:36 41.09076 14.72709 7176 ft 228 kts 236°
2026-04-28 18:36 41.08241 14.70937 6959 ft 225 kts 237°
2026-04-28 18:37 41.07411 14.69174 6686 ft 224 kts 236°
2026-04-28 18:37 41.06589 14.67424 6414 ft 224 kts 237°
2026-04-28 18:37 41.05767 14.65673 6174 ft 222 kts 237°
2026-04-28 18:37 41.04953 14.63936 5890 ft 222 kts 237°
2026-04-28 18:38 41.04138 14.62192 5571 ft 223 kts 237°
2026-04-28 18:38 41.03322 14.60445 5272 ft 222 kts 236°
2026-04-28 18:38 41.02513 14.58711 4986 ft 221 kts 237°
2026-04-28 18:38 41.01708 14.56987 4896 ft 219 kts 237°
2026-04-28 18:39 41.00910 14.55282 4906 ft 219 kts 236°
2026-04-28 18:39 41.00102 14.53568 4650 ft 219 kts 236°
2026-04-28 18:39 40.99309 14.51879 4329 ft 216 kts 236°
2026-04-28 18:39 40.98536 14.50229 4036 ft 207 kts 237°
2026-04-28 18:40 40.97790 14.48636 3741 ft 200 kts 237°
2026-04-28 18:40 40.97077 14.47114 3474 ft 189 kts 238°
2026-04-28 18:40 40.96407 14.45684 3192 ft 178 kts 237°
2026-04-28 18:40 40.95760 14.44305 2929 ft 176 kts 238°
2026-04-28 18:41 40.95117 14.42935 2684 ft 174 kts 238°
2026-04-28 18:41 40.94482 14.41581 2432 ft 173 kts 238°
2026-04-28 18:41 40.93853 14.40241 2206 ft 170 kts 239°
2026-04-28 18:41 40.93232 14.38919 1938 ft 168 kts 239°
2026-04-28 18:42 40.92616 14.37608 1688 ft 168 kts 238°
2026-04-28 18:42 40.91998 14.36293 1429 ft 163 kts 238°
2026-04-28 18:42 40.91419 14.35061 1201 ft 154 kts 236°
2026-04-28 18:42 40.90866 14.33884 967 ft 148 kts 235°
2026-04-28 18:43 40.90316 14.32718 750 ft 150 kts 235°
2026-04-28 18:43 40.89766 14.31550 539 ft 150 kts 237°
2026-04-28 18:43 40.89206 14.30363 332 ft 154 kts 237°
2026-04-28 18:43 40.88688 14.29272 259 ft 121 kts 237°
2026-04-28 18:44 40.88358 14.28574 293 ft 46 kts 238°
2026-04-28 18:44 40.88099 14.28338 301 ft 6 kts 211°
2026-04-28 18:44 40.88098 14.28337 301 ft 0 kts 211°
2026-04-28 18:45 40.88077 14.28309 301 ft 7 kts 234°
2026-04-28 18:45 40.88061 14.28256 303 ft 5 kts 254°
2026-04-28 18:45 40.88052 14.28215 303 ft 4 kts 253°
2026-04-28 18:45 40.88042 14.28182 306 ft 4 kts 243°
2026-04-28 18:46 40.88027 14.28154 305 ft 5 kts 230°
2026-04-28 18:46 40.87998 14.28126 306 ft 5 kts 202°
2026-04-28 18:46 40.87964 14.28110 308 ft 6 kts 204°
2026-04-28 18:46 40.87933 14.28076 311 ft 5 kts 228°
2026-04-28 18:47 40.87910 14.28041 311 ft 5 kts 229°
2026-04-28 18:47 40.87887 14.28036 311 ft 4 kts 160°
2026-04-28 18:47 40.87860 14.28066 311 ft 7 kts 141°
2026-04-28 18:47 40.87838 14.28089 311 ft 0 kts 141°